This is the latest recevied weather packets stored in our database for station/object VK3HUG-13. If no packets are shown the sender has not sent any weather packets the latest 10 day(s).
| Time | Temp. | Humidity | Pressure | Rain* | Wind** | Luminosity | Snow |
|---|---|---|---|---|---|---|---|
| 1787773507 | 3.89° C | 1% | 1029.9 hPa | 0 mm | - | - | - |
| 1787772608 | 3.89° C | 1% | 1029.9 hPa | 0 mm | - | - | - |
| 1787771707 | 4.44° C | 100% | 1029.9 hPa | 0 mm | - | - | - |
| 1787770807 | 4.44° C | 100% | 1029.8 hPa | 0 mm | - | - | - |
| 1787769908 | 3.89° C | 100% | 1029.9 hPa | 0 mm | - | - | - |
| 1787769007 | 5° C | 100% | 1029.8 hPa | 0 mm | - | - | - |
| 1787768106 | 4.44° C | 99% | 1029.8 hPa | 0 mm | - | - | - |
| 1787767207 | 5° C | 99% | 1029.8 hPa | 0 mm | - | - | - |
| 1787766307 | 5° C | 99% | 1029.7 hPa | 0 mm | - | - | - |
| 1787765408 | 5.56° C | 98% | 1029.7 hPa | 0 mm | - | - | - |
| 1787764506 | 5.56° C | 98% | 1029.7 hPa | 0 mm | - | - | - |
| 1787763608 | 5.56° C | 97% | 1029.7 hPa | 0 mm | - | - | - |
| 1787762706 | 5° C | 97% | 1029.7 hPa | 0 mm | - | - | - |
| 1787760907 | 4.44° C | 96% | 1029.8 hPa | 0 mm | - | - | - |
| 1787760007 | 5.56° C | 96% | 1030.8 hPa | 0 mm | - | - | - |
| 1787759107 | 6.11° C | 96% | 1030.7 hPa | 0 mm | - | - | - |
| 1787758208 | 6.11° C | 96% | 1030.7 hPa | 0 mm | - | - | - |
| 1787757307 | 6.67° C | 95% | 1030.6 hPa | 0 mm | - | - | - |
| 1787756408 | 7.22° C | 95% | 1030.5 hPa | 0 mm | - | - | - |
| 1787754609 | 7.22° C | 93% | 1030.5 hPa | 0 mm | - | - | - |
| 1787753707 | 7.78° C | 93% | 1030.4 hPa | 0 mm | - | - | - |
| 1787752807 | 7.78° C | 93% | 1030.4 hPa | 0 mm | - | - | - |
| 1787751906 | 7.78° C | 93% | 1030.4 hPa | 0 mm | - | - | - |
| 1787751008 | 8.33° C | 93% | 1030.3 hPa | 0 mm | - | - | - |
| 1787750107 | 8.33° C | 92% | 1030.3 hPa | 0 mm | - | - | - |
* Rain latest hour (hover to see other rain measurements)
** Current wind speed in m/s (hover to see current wind gust speed)